FW8327 Weather Reports


Display with metric or nautical units.
time (UTC)temp
F
wind
direction
speed
MPH
gust
MPH
rain 1hr
in
rain 24hr
in
rain mn
in
humidity
%
barometer
mb
20260903104815 75 224 0.0 0.0 0.00 0.00 0.00 91 1014.8
20260903104310 75 171 0.0 0.0 0.00 0.00 0.00 92 1014.7
20260903103807 76 198 0.0 0.0 0.00 0.00 0.00 91 1014.7
20260903103303 76 218 0.0 0.0 0.00 0.00 0.00 89 1014.4
20260903102758 76 174 0.0 0.0 0.00 0.00 0.00 89 1014.4
20260903102252 76 179 0.0 0.0 0.00 0.00 0.00 90 1014.4
20260903101750 76 151 0.0 0.0 0.00 0.00 0.00 90 1014.5
20260903101247 76 178 0.0 0.0 0.00 0.00 0.00 90 1014.6
20260903100742 76 151 0.0 0.0 0.00 0.00 0.00 90 1014.6
20260903100236 76 166 0.0 0.0 0.00 0.00 0.00 91 1014.4
20260903095733 76 149 0.0 0.0 0.00 0.00 0.00 91 1014.5
20260903095228 76 150 0.0 0.0 0.00 0.00 0.00 91 1014.4
20260903094723 75 147 0.0 0.0 0.00 0.00 0.00 93 1014.6
20260903094218 75 164 0.0 0.0 0.00 0.00 0.00 93 1014.4
20260903093714 75 143 0.0 0.0 0.00 0.00 0.00 94 1014.5
20260903093209 75 149 0.0 0.0 0.00 0.00 0.00 94 1014.6
20260903092708 75 149 0.0 0.0 0.00 0.00 0.00 94 1014.6
20260903092204 75 149 0.0 0.0 0.00 0.00 0.00 93 1014.6
20260903091702 75 149 0.0 0.0 0.00 0.00 0.00 92 1014.5
20260903091156 76 150 0.0 0.0 0.00 0.00 0.00 92 1014.5
20260903090652 76 153 0.0 0.0 0.00 0.00 0.00 91 1014.4
20260903090150 77 153 0.0 0.0 0.00 0.00 0.00 90 1014.5
20260903085650 77 160 0.0 0.0 0.00 0.00 0.00 89 1014.5
20260903085146 77 161 0.0 0.0 0.00 0.00 0.00 89 1014.4
20260903084643 77 133 0.0 0.0 0.00 0.00 0.00 88 1014.4
20260903084138 78 160 0.0 0.0 0.00 0.00 0.00 88 1014.4
20260903083634 78 161 0.0 0.0 0.00 0.00 0.00 88 1014.5
20260903083133 78 163 0.0 0.0 0.00 0.00 0.00 87 1014.4
20260903082628 78 148 0.0 0.0 0.00 0.00 0.00 87 1014.6
20260903082124 78 229 0.0 0.0 0.00 0.00 0.00 88 1014.3
20260903081618 78 158 0.0 0.0 0.00 0.00 0.00 88 1014.4
20260903081114 78 157 0.0 0.0 0.00 0.00 0.00 87 1014.4
20260903080610 78 155 0.0 0.0 0.00 0.00 0.00 87 1014.3
20260903080107 78 153 0.0 0.0 0.00 0.00 0.00 87 1014.4
20260903075601 78 155 0.0 0.0 0.00 0.00 0.00 87 1014.4
20260903075056 78 173 0.0 0.0 0.00 0.00 0.00 88 1014.2
20260903074555 78 157 0.0 0.0 0.00 0.00 0.00 88 1014.4
20260903074050 78 153 0.0 0.0 0.00 0.00 0.00 88 1014.3
20260903073546 78 190 0.0 0.0 0.00 0.00 0.00 88 1014.3
20260903073042 78 165 0.0 0.0 0.00 0.00 0.00 88 1014.2
20260903072537 78 188 0.0 0.0 0.00 0.00 0.00 88 1014.1
20260903072033 78 145 0.0 0.0 0.00 0.00 0.00 90 1014.1
20260903071530 77 160 0.0 0.0 0.00 0.00 0.00 90 1014.1
20260903071025 77 136 0.0 0.0 0.00 0.00 0.00 91 1014.2
20260903070524 77 142 0.0 0.0 0.00 0.00 0.00 91 1014.3
20260903070020 77 160 0.0 0.0 0.00 0.00 0.00 92 1014.4
20260903065514 77 151 0.0 0.0 0.00 0.00 0.00 92 1014.2
20260903065014 77 147 0.0 0.0 0.00 0.00 0.00 92 1014.3
20260903064513 77 147 0.0 0.0 0.00 0.00 0.00 91 1014.4
20260903064009 77 153 0.0 0.0 0.00 0.00 0.00 92 1014.4
20260903063504 77 153 0.0 0.0 0.00 0.00 0.00 92 1014.2
20260903062959 77 148 0.0 0.0 0.00 0.00 0.00 92 1014.2
20260903062454 77 148 0.0 0.0 0.00 0.00 0.00 92 1014.2
20260903061949 77 147 0.0 0.0 0.00 0.00 0.00 92 1014.3
20260903061444 78 148 0.0 0.0 0.00 0.00 0.00 92 1014.3
20260903060940 78 148 0.0 0.0 0.00 0.00 0.00 91 1014.3
20260903060434 78 148 0.0 0.0 0.00 0.00 0.00 91 1014.1
20260903055933 78 149 0.0 0.0 0.00 0.00 0.00 91 1014.1
20260903055430 78 151 0.0 0.0 0.00 0.00 0.00 91 1014.2
20260903054925 78 155 0.0 0.0 0.00 0.00 0.00 91 1014.5
20260903054419 78 148 0.0 0.0 0.00 0.00 0.00 91 1014.4
20260903053915 78 143 0.0 0.0 0.00 0.00 0.00 92 1014.3
20260903053410 78 146 0.0 0.0 0.00 0.00 0.00 92 1014.2
20260903052907 78 145 0.0 0.0 0.00 0.00 0.00 91 1014.3
20260903052402 78 150 0.0 0.0 0.00 0.00 0.00 92 1014.2
20260903051857 78 147 0.0 0.0 0.00 0.00 0.00 91 1014.1
20260903051353 78 156 0.0 0.0 0.00 0.00 0.00 92 1014.1
20260903050848 78 147 0.0 0.0 0.00 0.00 0.00 92 1014.0
20260903050347 78 147 0.0 0.0 0.00 0.00 0.00 92 1014.0
20260903045842 78 147 0.0 0.0 0.00 0.00 0.00 92 1014.0
20260903045338 78 147 0.0 0.0 0.00 0.00 0.00 92 1013.7
20260903044834 78 147 0.0 0.0 0.00 0.00 0.00 91 1013.9
20260903044329 78 148 0.0 0.0 0.00 0.00 0.00 92 1013.9
20260903043825 78 148 0.0 0.0 0.00 0.00 0.00 92 1014.0
20260903043320 78 148 0.0 0.0 0.00 0.00 0.00 92 1013.8
20260903042819 78 153 0.0 0.0 0.00 0.00 0.00 92 1013.7
20260903042314 78 153 0.0 0.0 0.00 0.00 0.00 93 1014.0
20260903041810 78 154 0.0 0.0 0.00 0.00 0.00 93 1014.1
20260903041307 78 154 0.0 0.0 0.00 0.00 0.00 93 1013.8
20260903040807 78 154 0.0 0.0 0.00 0.00 0.00 92 1013.9
20260903040306 78 154 0.0 0.0 0.00 0.00 0.00 93 1013.9
20260903035802 78 154 0.0 0.0 0.00 0.00 0.00 93 1014.0
20260903035257 78 154 0.0 0.0 0.00 0.00 0.00 93 1013.9
20260903034753 78 154 0.0 0.0 0.00 0.00 0.00 92 1014.0
20260903034248 78 156 0.0 0.0 0.00 0.00 0.00 92 1014.0
20260903033743 78 156 0.0 0.0 0.00 0.00 0.00 93 1014.0
20260903033238 78 150 0.0 0.0 0.00 0.00 0.00 94 1014.0
20260903032732 78 151 0.0 0.0 0.00 0.00 0.00 93 1014.2
20260903032228 78 151 0.0 0.0 0.00 0.00 0.00 92 1014.0
20260903031723 78 151 0.0 0.0 0.00 0.00 0.00 92 1014.2
20260903031217 79 151 0.0 0.0 0.00 0.00 0.00 91 1014.2
20260903030713 79 151 0.0 0.0 0.00 0.00 0.00 91 1014.1
20260903030209 79 151 0.0 0.0 0.00 0.00 0.00 90 1014.4
20260903025704 80 151 0.0 0.0 0.00 0.00 0.00 90 1014.1
20260903025159 80 151 0.0 0.0 0.00 0.00 0.00 89 1014.0
20260903024654 80 153 0.0 0.0 0.00 0.00 0.00 90 1014.2
20260903024153 80 153 0.0 0.0 0.00 0.00 0.00 89 1014.1
20260903023649 80 153 0.0 0.0 0.00 0.00 0.00 89 1014.4
20260903023144 80 153 0.0 0.0 0.00 0.00 0.00 89 1014.2
20260903022638 80 153 0.0 0.0 0.00 0.00 0.00 89 1014.5
20260903022138 80 153 0.0 0.0 0.00 0.00 0.00 89 1014.3
20260903021637 80 153 0.0 0.0 0.00 0.00 0.00 89 1014.3
20260903021132 80 153 0.0 0.0 0.00 0.00 0.00 89 1014.2
20260903020627 80 153 0.0 0.0 0.00 0.00 0.00 89 1014.2
20260903020122 80 153 0.0 0.0 0.00 0.00 0.00 89 1014.5
20260903015618 80 155 0.0 0.0 0.00 0.00 0.00 90 1014.3
20260903015112 80 156 0.0 0.0 0.00 0.00 0.00 89 1014.2
20260903014606 81 156 0.0 0.0 0.00 0.00 0.00 89 1014.2
20260903014101 81 156 0.0 0.0 0.00 0.00 0.00 88 1014.2
20260903013601 81 151 0.0 0.0 0.00 0.00 0.00 88 1014.2
20260903013050 81 151 0.0 0.0 0.00 0.00 0.00 88 1014.1
20260903012549 82 151 0.0 0.0 0.00 0.00 0.00 87 1014.1
20260903012043 82 151 0.0 0.0 0.00 0.00 0.00 87 1014.0
20260903011543 82 151 0.0 0.0 0.00 0.00 0.00 86 1013.9
20260903011038 82 151 0.0 0.0 0.00 0.00 0.00 86 1014.0
20260903010533 82 151 0.0 0.0 0.00 0.00 0.00 86 1013.7
20260903010032 82 151 0.0 0.0 0.00 0.00 0.00 86 1013.8
20260903005531 82 151 0.0 0.0 0.00 0.00 0.00 86 1013.9
20260903005027 82 151 0.0 0.0 0.00 0.00 0.00 86 1013.6
20260903004527 83 151 0.0 0.0 0.00 0.00 0.00 85 1013.9
20260903004023 83 151 0.0 0.0 0.00 0.00 0.00 84 1013.7
20260903003518 83 151 0.0 0.0 0.00 0.00 0.00 84 1013.7
20260903003013 83 151 0.0 0.0 0.00 0.00 0.00 84 1013.8
20260903002513 84 151 0.0 0.0 0.00 0.00 0.00 84 1013.6
20260903002008 84 151 0.0 0.0 0.00 0.00 0.00 83 1013.8
20260903001508 85 151 0.0 0.0 0.00 0.00 0.00 81 1013.7
20260903001002 86 151 0.0 0.0 0.00 0.00 0.00 80 1013.7
20260903000457 86 157 0.0 0.0 0.00 0.00 0.00 78 1013.8
20260902235955 87 164 0.0 0.0 0.00 0.00 0.00 77 1013.9
20260902235450 87 156 0.0 0.0 0.00 0.00 0.00 76 1013.7
20260902234945 88 161 0.0 0.0 0.00 0.00 0.00 75 1013.6
20260902234439 88 156 0.0 0.0 0.00 0.00 0.00 75 1013.6
20260902233933 89 167 0.0 0.0 0.00 0.00 0.00 73 1013.7
20260902233432 89 167 0.0 0.0 0.00 0.00 0.00 73 1013.4
20260902232931 89 177 0.0 0.0 0.00 0.00 0.00 72 1013.8
20260902232421 91 160 0.0 0.0 0.00 0.00 0.00 72 1013.8
20260902231921 91 162 0.0 0.0 0.00 0.00 0.00 70 1013.8
20260902231416 91 161 0.0 0.0 0.00 0.00 0.00 70 1013.8
20260902230911 92 178 0.0 0.0 0.00 0.00 0.00 70 1013.9
20260902230410 92 156 0.0 0.0 0.00 0.00 0.00 70 1013.9
20260902225904 92 165 0.0 0.0 0.00 0.00 0.00 70 1013.7
20260902225359 92 185 0.0 0.0 0.00 0.00 0.00 68 1013.8
20260902224858 92 156 0.0 0.0 0.00 0.00 0.00 69 1013.8
20260902224352 92 167 0.0 0.0 0.00 0.00 0.00 67 1013.8
20260902223849 92 168 0.0 0.0 0.00 0.00 0.00 68 1013.9
20260902223349 92 208 0.0 0.0 0.00 0.00 0.00 68 1013.9
20260902222843 92 215 0.0 0.0 0.00 0.00 0.00 67 1014.0
20260902222342 93 172 0.0 0.0 0.00 0.00 0.00 67 1013.9
20260902221836 93 167 0.0 0.0 0.00 0.00 0.00 67 1014.0
20260902221336 93 149 0.0 0.0 0.00 0.00 0.00 67 1013.9
20260902220831 93 156 0.0 0.0 0.00 0.00 0.00 67 1014.0
20260902220331 93 182 0.0 0.0 0.00 0.00 0.00 68 1013.9
20260902215826 93 195 0.0 0.0 0.00 0.00 0.00 66 1013.8
20260902215321 93 166 0.0 1.0 0.00 0.00 0.00 66 1013.6
20260902214817 93 148 0.0 0.0 0.00 0.00 0.00 65 1013.8
20260902214316 93 159 0.0 0.0 0.00 0.00 0.00 66 1013.7
20260902213811 93 206 0.0 0.0 0.00 0.00 0.00 65 1013.7
20260902213307 93 201 0.0 0.0 0.00 0.00 0.00 65 1013.8
20260902212805 93 252 0.0 0.0 0.00 0.00 0.00 64 1013.9
20260902212305 93 173 0.0 0.0 0.00 0.00 0.00 64 1013.8
20260902211758 93 167 0.0 0.0 0.00 0.00 0.00 64 1013.8
20260902211253 92 131 0.0 0.0 0.00 0.00 0.00 64 1013.6
20260902210748 93 243 0.0 1.0 0.00 0.00 0.00 66 1013.8
20260902210243 94 255 0.0 2.0 0.00 0.00 0.00 63 1013.8
20260902205741 93 228 0.0 0.0 0.00 0.00 0.00 64 1013.7
20260902205236 93 261 1.0 2.0 0.00 0.00 0.00 62 1013.8
20260902204731 93 168 0.0 0.0 0.00 0.00 0.00 65 1013.9
20260902204227 93 262 0.0 1.0 0.00 0.00 0.00 65 1013.9
20260902203721 93 193 1.0 2.0 0.00 0.00 0.00 66 1014.1
20260902203216 93 173 0.0 0.0 0.00 0.00 0.00 64 1014.0
20260902202710 94 225 0.0 0.0 0.00 0.00 0.00 65 1014.2
20260902202208 94 235 0.0 0.0 0.00 0.00 0.00 64 1013.9
20260902201704 93 166 0.0 0.0 0.00 0.00 0.00 64 1014.2
20260902201203 95 269 0.0 0.0 0.00 0.00 0.00 64 1014.4
20260902200658 93 181 0.0 0.0 0.00 0.00 0.00 66 1014.2
20260902200154 93 223 1.0 2.0 0.00 0.00 0.00 64 1014.2
20260902195648 93 157 0.0 0.0 0.00 0.00 0.00 65 1014.3
20260902195143 93 164 0.0 0.0 0.00 0.00 0.00 67 1014.3
20260902194641 93 245 0.0 0.0 0.00 0.00 0.00 66 1014.5
20260902194136 94 229 0.0 0.0 0.00 0.00 0.00 65 1014.5
20260902193632 93 289 0.0 0.0 0.00 0.00 0.00 65 1014.4
20260902193127 94 146 0.0 1.0 0.00 0.00 0.00 64 1014.5
20260902192625 94 204 0.0 0.0 0.00 0.00 0.00 64 1014.8
20260902192125 94 159 0.0 0.0 0.00 0.00 0.00 65 1014.7
20260902191619 94 175 0.0 0.0 0.00 0.00 0.00 65 1014.7
20260902191114 94 170 0.0 0.0 0.00 0.00 0.00 65 1014.6
20260902190610 94 211 0.0 0.0 0.00 0.00 0.00 63 1014.4
20260902190105 93 179 0.0 0.0 0.00 0.00 0.00 65 1014.8
20260902185601 94 256 0.0 0.0 0.00 0.00 0.00 64 1014.6
20260902185056 94 139 0.0 0.0 0.00 0.00 0.00 62 1014.8
20260902184551 94 174 0.0 0.0 0.00 0.00 0.00 64 1014.8
20260902184046 93 318 0.0 0.0 0.00 0.00 0.00 65 1014.8
20260902183543 93 152 0.0 0.0 0.00 0.00 0.00 64 1014.7
20260902183039 93 156 0.0 0.0 0.00 0.00 0.00 65 1014.4
20260902182535 93 149 0.0 0.0 0.00 0.00 0.00 65 1014.9
20260902182031 93 164 0.0 0.0 0.00 0.00 0.00 66 1015.0
20260902181527 93 154 0.0 0.0 0.00 0.00 0.00 64 1015.1
20260902181020 93 114 0.0 0.0 0.00 0.00 0.00 66 1015.0
20260902180515 93 181 0.0 0.0 0.00 0.00 0.00 66 1014.9
20260902180011 93 190 0.0 0.0 0.00 0.00 0.00 65 1015.0
20260902175511 93 170 0.0 0.0 0.00 0.00 0.00 65 1014.9
20260902175007 93 167 0.0 0.0 0.00 0.00 0.00 68 1015.3
20260902174503 93 183 0.0 0.0 0.00 0.00 0.00 67 1015.2
20260902173958 93 167 0.0 0.0 0.00 0.00 0.00 68 1015.2
20260902173458 93 185 0.0 0.0 0.00 0.00 0.00 68 1015.3
20260902172953 93 139 0.0 0.0 0.00 0.00 0.00 67 1015.4
20260902172452 93 167 0.0 0.0 0.00 0.00 0.00 67 1015.3
20260902171948 93 147 0.0 0.0 0.00 0.00 0.00 68 1015.2
20260902171443 93 170 0.0 0.0 0.00 0.00 0.00 69 1015.4
20260902170939 92 195 0.0 1.0 0.00 0.00 0.00 67 1015.4
20260902170434 93 144 0.0 0.0 0.00 0.00 0.00 67 1015.4
20260902165930 92 252 0.0 0.0 0.00 0.00 0.00 67 1015.3
20260902165428 92 138 0.0 0.0 0.00 0.00 0.00 68 1015.5
20260902164923 93 166 0.0 0.0 0.00 0.00 0.00 68 1015.4
20260902164418 91 163 0.0 0.0 0.00 0.00 0.00 69 1015.7
20260902163917 91 153 0.0 0.0 0.00 0.00 0.00 70 1015.5
20260902163413 91 278 0.0 0.0 0.00 0.00 0.00 69 1015.7
20260902162910 91 280 0.0 1.0 0.00 0.00 0.00 67 1015.9
20260902162406 92 224 0.0 0.0 0.00 0.00 0.00 68 1015.7
20260902161900 92 168 0.0 0.0 0.00 0.00 0.00 66 1015.7
20260902161355 91 164 0.0 0.0 0.00 0.00 0.00 67 1015.6
20260902160851 90 177 0.0 0.0 0.00 0.00 0.00 69 1015.8
20260902160347 89 146 0.0 0.0 0.00 0.00 0.00 68 1015.7
20260902155845 89 240 0.0 0.0 0.00 0.00 0.00 71 1015.7
20260902155344 89 187 0.0 0.0 0.00 0.00 0.00 68 1015.8
20260902154839 89 272 0.0 1.0 0.00 0.00 0.00 69 1015.7
20260902154335 89 191 0.0 0.0 0.00 0.00 0.00 70 1015.6
20260902153833 89 174 0.0 0.0 0.00 0.00 0.00 70 1015.8
20260902153332 89 176 0.0 0.0 0.00 0.00 0.00 69 1015.9
20260902152829 89 256 0.0 0.0 0.00 0.00 0.00 72 1015.9
20260902152325 89 165 0.0 0.0 0.00 0.00 0.00 73 1015.7
20260902151820 90 189 0.0 0.0 0.00 0.00 0.00 72 1015.8
20260902151315 89 165 0.0 0.0 0.00 0.00 0.00 73 1015.7
20260902150809 89 162 0.0 0.0 0.00 0.00 0.00 72 1015.8
20260902150306 89 159 0.0 0.0 0.00 0.00 0.00 76 1015.9
20260902145805 88 206 0.0 0.0 0.00 0.00 0.00 74 1015.9
20260902145300 88 194 0.0 0.0 0.00 0.00 0.00 75 1015.8
20260902144756 87 138 0.0 0.0 0.00 0.00 0.00 77 1015.9
20260902144251 86 250 0.0 1.0 0.00 0.00 0.00 76 1015.9
20260902143746 87 256 1.0 1.0 0.00 0.00 0.00 75 1015.9
20260902143241 86 256 0.0 0.0 0.00 0.00 0.00 77 1016.0
20260902142737 85 238 0.0 1.0 0.00 0.00 0.00 79 1015.9
20260902142233 86 206 0.0 0.0 0.00 0.00 0.00 79 1015.8
20260902141732 85 156 0.0 0.0 0.00 0.00 0.00 79 1015.8
20260902141229 85 238 0.0 0.0 0.00 0.00 0.00 79 1016.1
20260902140723 84 203 0.0 0.0 0.00 0.00 0.00 79 1015.9
20260902140218 84 165 0.0 0.0 0.00 0.00 0.00 79 1016.0
20260902135717 84 151 0.0 0.0 0.00 0.00 0.00 80 1016.2
20260902135214 83 267 1.0 1.0 0.00 0.00 0.00 80 1016.2
20260902134713 83 173 0.0 0.0 0.00 0.00 0.00 82 1016.3
20260902134208 81 176 0.0 0.0 0.00 0.00 0.00 84 1016.1
20260902133703 81 180 0.0 0.0 0.00 0.00 0.00 84 1016.5
20260902133202 81 158 0.0 0.0 0.00 0.00 0.00 85 1016.4
20260902132658 81 157 0.0 0.0 0.00 0.00 0.00 85 1016.4
20260902132153 81 224 0.0 1.0 0.00 0.00 0.00 84 1016.3
20260902131649 81 225 0.0 0.0 0.00 0.00 0.00 85 1016.6
20260902131145 80 163 0.0 0.0 0.00 0.00 0.00 85 1016.6
20260902130640 80 170 0.0 0.0 0.00 0.00 0.00 84 1016.1
20260902130135 80 148 0.0 0.0 0.00 0.00 0.00 85 1016.2
20260902125631 80 166 0.0 0.0 0.00 0.00 0.00 85 1016.3
20260902125126 79 241 0.0 0.0 0.00 0.00 0.00 85 1016.5
20260902124623 79 164 0.0 0.0 0.00 0.00 0.00 86 1016.2
20260902124122 79 171 0.0 0.0 0.00 0.00 0.00 86 1016.3
20260902123619 79 187 0.0 0.0 0.00 0.00 0.00 86 1016.2
20260902123113 78 194 0.0 0.0 0.00 0.00 0.00 87 1016.4
20260902122613 77 159 0.0 0.0 0.00 0.00 0.00 89 1016.2
20260902122108 77 154 0.0 0.0 0.00 0.00 0.00 90 1016.2
20260902121603 76 146 0.0 0.0 0.00 0.00 0.00 90 1016.4
20260902121058 76 163 0.0 0.0 0.00 0.00 0.00 91 1016.3
20260902120554 75 160 0.0 0.0 0.00 0.00 0.00 91 1016.3
20260902120050 75 152 0.0 0.0 0.00 0.00 0.00 91 1016.2
20260902115545 75 172 0.0 0.0 0.00 0.00 0.00 92 1016.1
20260902115041 75 154 0.0 0.0 0.00 0.00 0.00 92 1016.5
20260902114537 75 169 0.0 0.0 0.00 0.00 0.00 92 1016.4
20260902114036 75 168 0.0 0.0 0.00 0.00 0.00 92 1016.3
20260902113532 75 169 0.0 0.0 0.00 0.00 0.00 92 1016.3
20260902113027 75 170 0.0 0.0 0.00 0.00 0.00 92 1016.1
20260902112523 75 168 0.0 0.0 0.00 0.00 0.00 92 1015.8
20260902112019 74 168 0.0 0.0 0.00 0.00 0.00 92 1015.8
20260902111515 74 161 0.0 0.0 0.00 0.00 0.00 92 1015.9
20260902111010 74 151 0.0 0.0 0.00 0.00 0.00 92 1016.0
20260902110507 74 155 0.0 0.0 0.00 0.00 0.00 92 1016.1
20260902110001 74 165 0.0 0.0 0.00 0.00 0.00 92 1016.0
20260902105451 74 159 0.0 0.0 0.00 0.00 0.00 92 1015.9
20260902104951 75 158 0.0 0.0 0.00 0.00 0.00 92 1015.7